Weather History for Greenville Downtown, SC

Change the Weather History Date:

Friday, August 15, 2014

  Actual Average Record
Temperature  
Mean Temperature 78 °F -  
Max Temperature 87 °F 86 °F 99 °F (2007)
Min Temperature 68 °F 68 °F 48 °F (1996)
Cooling Degree Days 12    
Growing Degree Days 28 (Base 50)    
Moisture  
Dew Point 61 °F    
Average Humidity 59    
Maximum Humidity 78    
Minimum Humidity 41    
Precipitation  
Precipitation 0.00 in - - ()
Sea Level Pressure  
Sea Level Pressure 30.00 in    
Wind  
Wind Speed 2 mph (WSW)    
Max Wind Speed 8 mph    
Max Gust Speed -    
Visibility 10 miles    
Events      
Averages and records for this station are not official NWS values.
T = Trace of Precipitation, MM = Missing Value Source: NWS Daily Summary

Daily Weather History Graph

Daily Weather History Graph

Search for Another Location

Airport:

Trip Planner

Search our weather history database for the weather conditions in past years. The results will help you decide how hot, cold, wet, or windy it might be!

Date:

Astronomy

Aug. 15, 2014 Rise Set
Actual Time 6:49 AM EDT 8:17 PM EDT
Civil Twilight 6:22 AM EDT 8:44 PM EDT
Nautical Twilight 5:50 AM EDT 9:16 PM EDT
Astronomical Twilight 5:17 AM EDT 9:49 PM EDT
Moon 11:35 PM EDT (8/15) 12:15 PM EDT (8/15)
Length of Visible Light 14h 21m
Length of Day
13h 27m
Waning Gibbous, 69% of the Moon is Illuminated
Aug 15
Waning Gibbous
Aug 17
Last Quarter
Aug 25
New
Sep 2
First Quarter
Sep 8
Full

Hourly Weather History & Observations

Time (EDT) Temp. Heat Index Dew Point Humidity Pressure Visibility Wind Dir Wind Speed Gust Speed Precip Events Conditions
12:53 AM 73.9 °F - 62.1 °F 66% 30.02 in 10.0 mi Calm Calm - N/A   Overcast
1:53 AM 73.0 °F - 63.0 °F 71% 30.01 in 10.0 mi Calm Calm - N/A   Overcast
2:53 AM 71.1 °F - 62.1 °F 73% 29.99 in 10.0 mi NNW 3.5 mph - N/A   Clear
3:53 AM 70.0 °F - 62.1 °F 76% 29.99 in 10.0 mi Calm Calm - N/A   Clear
4:53 AM 69.1 °F - 62.1 °F 78% 29.99 in 10.0 mi Calm Calm - N/A   Clear
5:53 AM 69.1 °F - 61.0 °F 75% 30.00 in 10.0 mi Calm Calm - N/A   Clear
6:53 AM 68.0 °F - 61.0 °F 78% 30.01 in 10.0 mi Calm Calm - N/A   Clear
7:53 AM 71.1 °F - 62.1 °F 73% 30.03 in 10.0 mi North 3.5 mph - N/A   Clear
8:53 AM 75.0 °F - 62.1 °F 64% 30.05 in 10.0 mi Calm Calm - N/A   Clear
10:53 AM 80.1 °F 81.1 °F 61.0 °F 52% 30.05 in 10.0 mi Calm Calm - N/A   Clear
11:53 AM 82.0 °F 83.0 °F 62.1 °F 51% 30.04 in 10.0 mi Variable 4.6 mph - N/A   Partly Cloudy
12:53 PM 84.0 °F 84.5 °F 62.1 °F 47% 30.03 in 10.0 mi Variable 4.6 mph - N/A   Partly Cloudy
1:53 PM 84.0 °F 84.5 °F 62.1 °F 47% 30.00 in 10.0 mi West 8.1 mph - N/A   Clear
2:53 PM 82.9 °F 82.8 °F 59.0 °F 44% 29.99 in 10.0 mi Variable 4.6 mph - N/A   Scattered Clouds
3:53 PM 87.1 °F 87.0 °F 61.0 °F 41% 29.96 in 10.0 mi WSW 6.9 mph - N/A   Mostly Cloudy
4:53 PM 84.9 °F 84.8 °F 60.1 °F 43% 29.96 in 10.0 mi WSW 6.9 mph - N/A   Partly Cloudy
5:53 PM 84.0 °F 83.8 °F 59.0 °F 43% 29.97 in 10.0 mi South 5.8 mph - N/A   Mostly Cloudy
6:53 PM 82.9 °F 83.2 °F 60.1 °F 46% 29.99 in 10.0 mi SSW 3.5 mph - N/A   Overcast
7:53 PM 82.0 °F 82.4 °F 60.1 °F 47% 29.97 in 10.0 mi SSW 4.6 mph - N/A   Mostly Cloudy
8:53 PM 80.1 °F 80.9 °F 60.1 °F 50% 29.96 in 10.0 mi Calm Calm - N/A   Clear
9:53 PM 78.1 °F - 62.1 °F 58% 29.98 in 10.0 mi Calm Calm - N/A   Clear
10:53 PM 77.0 °F - 63.0 °F 62% 29.99 in 10.0 mi Calm Calm - N/A   Clear
11:53 PM 73.0 °F - 64.0 °F 73% 29.99 in 10.0 mi Calm Calm - N/A   Clear